Location: Gleizolles
(44.4833°N, 6.7667°E)
Time: 12:29:34
(UTC+00:00)

Envisat - Pass Details

Date: 09 December 2021
Orbit: 764 x 766 km, 98.2° (Epoch: 20 January)

Event Time Altitude Azimuth Distance (km) Brightness Sun altitude
Rises 04:05:54 0° 19° (NNE) 3,243 6.4 -29.7°
Reaches altitude 10° 04:08:19 10° 25° (NNE) 2,312 5.7 -29.2°
Maximum altitude 04:13:12 45° 98° (E) 1,035 4.0 -28.4°
Drops below altitude 10° 04:18:02 10° 171° (S) 2,294 5.6 -27.5°
Sets 04:20:25 0° 178° (S) 3,215 6.3 -27.1°
